Location: Beccas
(43.4309°N, 0.1528°E)
Time: 23:24:18
(UTC+00:00)

X-37B - Visible Passes

Search period start: 28 January 2022 00:00
Search period end: 07 February 2022 00:00
Orbit: 331 x 339 km, 45.0° (Epoch: 27 January)

Date Brightness Start Highest point End Pass type
(mag) Time Alt. Az. Time Alt. Az. Time Alt. Az.
28 Jan 1.6 17:55:16 10° SSW 17:57:45 28° SSE 17:59:36 14° E visible
28 Jan 3.6 19:30:15 10° W 19:30:49 15° W 19:30:49 15° W visible
29 Jan 0.4 18:15:17 10° WSW 18:18:04 61° SSE 18:19:15 29° E visible
30 Jan 0.2 18:35:42 10° W 18:38:31 77° N 18:38:53 62° NE visible
31 Jan 1.2 18:56:14 10° W 18:58:29 46° NW 18:58:29 46° NW visible
01 Feb 0.3 17:41:09 10° W 17:43:58 77° NNW 17:46:47 10° ENE visible
01 Feb 2.6 19:16:46 10° WNW 19:18:06 24° WNW 19:18:06 24° WNW visible
02 Feb 0.5 18:01:41 10° W 18:04:29 59° N 18:06:29 17° ENE visible
02 Feb 3.7 19:37:14 10° WNW 19:37:43 14° WNW 19:37:43 14° WNW visible
03 Feb 0.3 18:22:13 10° WNW 18:25:01 64° N 18:26:09 31° ENE visible
04 Feb 0.1 18:42:41 10° WNW 18:45:31 87° SSW 18:45:51 65° ESE visible
05 Feb 1.4 19:03:12 10° W 19:05:39 42° SW 19:05:39 42° SW visible
06 Feb 0.3 17:48:08 10° WNW 17:50:58 87° SSW 17:53:47 10° ESE visible
06 Feb 2.9 19:24:01 10° W 19:25:34 18° SW 19:25:34 18° SW visible
